This demonstration page uses our WeatherBlox Daily Observations layout. Learn more.

Left ArrowRight Arrow

Hourly Observations for February 6, 2016

Temp ( °F °C ) Dew Point ( °F °C ) Humidity (%) Winds ( mph kmh ) Pressure ( in mb ) Visibility ( mi km ) Precip ( " mm )
12:15 am 00:15 Clear 27 -3 -20 -29 11 11 WNW 5 7 30.42 1030 10 16 0.00 0.00
12:35 am 00:35 Clear 27 -3 -20 -29 11 11 ENE 6 9 30.42 1030 10 16 0.00 0.00
12:55 am 00:55 Clear 25 -4 -22 -30 11 11 W 8 13 30.42 1030 10 16 0.00 0.00
1:15 am 01:15 Clear 23 -5 -22 -30 12 12 W 7 11 30.42 1030 10 16 0.00 0.00
1:35 am 01:35 Clear 23 -5 -24 -31 11 11 W 7 11 30.42 1030 10 16 0.00 0.00
1:55 am 01:55 Clear 21 -6 -24 -31 12 12 W 6 9 30.42 1030 10 16 0.00 0.00
2:15 am 02:15 Clear 19 -7 -26 -32 12 12 W 7 11 30.45 1031 10 16 0.00 0.00
2:35 am 02:35 Clear 21 -6 -24 -31 12 12 W 5 7 30.42 1030 10 16 0.00 0.00
2:55 am 02:55 Clear 19 -7 -24 -31 13 13 W 6 9 30.45 1031 10 16 0.00 0.00
3:15 am 03:15 Clear 19 -7 -26 -32 12 12 Calm 30.45 1031 10 16 0.00 0.00
3:35 am 03:35 Clear 19 -7 -26 -32 12 12 Calm 30.45 1031 10 16 0.00 0.00
3:55 am 03:55 Clear 18 -8 -27 -33 11 11 Calm 30.42 1030 10 16 0.00 0.00
4:15 am 04:15 Clear 18 -8 -27 -33 11 11 W 3 6 30.42 1030 10 16 0.00 0.00
4:35 am 04:35 Clear 18 -8 -26 -32 12 12 W 5 7 30.42 1030 10 16 0.00 0.00
4:55 am 04:55 Clear 18 -8 -26 -32 12 12 W 5 7 30.39 1029 10 16 0.00 0.00
5:15 am 05:15 Clear 18 -8 -26 -32 12 12 W 8 13 30.42 1030 10 16 0.00 0.00
5:35 am 05:35 Clear 19 -7 -26 -32 12 12 WSW 7 11 30.39 1029 10 16 0.00 0.00
5:55 am 05:55 Clear 19 -7 -26 -32 12 12 WSW 12 19 30.39 1029 10 16 0.00 0.00
6:15 am 06:15 Clear 19 -7 -26 -32 12 12 WSW 8 13 30.39 1029 10 16 0.00 0.00
6:35 am 06:35 Clear 18 -8 -26 -32 12 12 WSW 8 13 30.39 1029 10 16 0.00 0.00
6:55 am 06:55 Clear 18 -8 -26 -32 12 12 WSW 13 20 30.42 1030 10 16 0.00 0.00
7:15 am 07:15 Clear 18 -8 -27 -33 11 11 WSW 7 11 30.42 1030 10 16 0.00 0.00
7:35 am 07:35 Clear 16 -9 -27 -33 12 12 WSW 8 13 30.39 1029 10 16 0.00 0.00
7:55 am 07:55 Sunny 16 -9 -27 -33 12 12 WSW 7 11 30.39 1029 10 16 0.00 0.00
8:15 am 08:15 Sunny 18 -8 -27 -33 11 11 WSW 6 9 30.39 1029 10 16 0.00 0.00
8:35 am 08:35 Sunny 18 -8 -27 -33 11 11 SW 8 13 30.39 1029 10 16 0.00 0.00
8:55 am 08:55 Sunny 18 -8 -27 -33 11 11 WSW 9 15 30.39 1029 10 16 0.00 0.00
9:15 am 09:15 Sunny 18 -8 -26 -32 12 12 WSW 10 17 30.39 1029 10 16 0.00 0.00
9:35 am 09:35 Sunny 19 -7 -26 -32 12 12 WSW 10 17 30.39 1029 10 16 0.00 0.00
9:55 am 09:55 Sunny 21 -6 -24 -31 12 12 WSW 12 19 30.36 1028 10 16 0.00 0.00
10:15 am 10:15 Sunny 25 -4 -22 -30 11 11 WSW 12 19 30.36 1028 10 16 0.00 0.00
10:35 am 10:35 Sunny 27 -3 -20 -29 11 11 SW 12 19 30.33 1027 10 16 0.00 0.00
10:55 am 10:55 Sunny 28 -2 -18 -28 12 12 SW 14 22 30.30 1026 10 16 0.00 0.00
11:15 am 11:15 Sunny 28 -2 -18 -28 12 12 SW 13 20 30.30 1026 10 16 0.00 0.00
11:35 am 11:35 Sunny 30 -1 -17 -27 12 12 SW 13 20 30.30 1026 10 16 0.00 0.00
11:55 am 11:55 Sunny 32 0 -17 -27 11 11 WSW 14 22 30.27 1025 10 16 0.00 0.00
12:15 pm 12:15 Sunny 34 1 -15 -26 11 11 SW 18 30 30.24 1024 10 16 0.00 0.00
12:35 pm 12:35 Sunny 34 1 -15 -26 11 11 SW 16 26 30.24 1024 10 16 0.00 0.00
12:55 pm 12:55 Sunny 34 1 -15 -26 11 11 SW 15 24 30.24 1024 10 16 0.00 0.00
1:15 pm 13:15 Sunny 36 2 N/A N/A SW 15 24 30.21 1023 10 16 0.00 0.00
1:35 pm 13:35 Sunny 36 2 -13 -25 11 11 SW 15 24 30.18 1022 10 16 0.00 0.00
1:55 pm 13:55 Sunny 37 3 -11 -24 12 12 SW 18 30 30.15 1021 10 16 0.00 0.00
2:15 pm 14:15 Sunny 37 3 -11 -24 12 12 SW 15 24 30.15 1021 10 16 0.00 0.00
2:35 pm 14:35 Sunny 37 3 -13 -25 11 11 SW 18 30 30.15 1021 10 16 0.00 0.00
2:55 pm 14:55 Sunny 36 2 N/A N/A SW 17 28 30.12 1020 10 16 0.00 0.00
3:15 pm 15:15 Sunny 36 2 -15 -26 10 10 SW 16 26 30.12 1020 10 16 0.00 0.00
3:35 pm 15:35 Sunny 36 2 -13 -25 11 11 SW 15 24 30.12 1020 10 16 0.00 0.00
3:55 pm 15:55 Sunny 36 2 -13 -25 11 11 SW 15 24 30.12 1020 10 16 0.00 0.00
4:15 pm 16:15 Sunny 36 2 -13 -25 11 11 SW 17 28 30.12 1020 10 16 0.00 0.00
4:35 pm 16:35 Sunny 36 2 -13 -25 11 11 SW 18 30 30.12 1020 10 16 0.00 0.00
4:55 pm 16:55 Sunny 36 2 -13 -25 11 11 SSW 18 30 30.09 1019 10 16 0.00 0.00
5:15 pm 17:15 Sunny 34 1 -15 -26 11 11 SSW 17 28 30.09 1019 10 16 0.00 0.00
5:35 pm 17:35 Sunny 34 1 -15 -26 11 11 SW 14 22 30.09 1019 10 16 0.00 0.00
5:55 pm 17:55 Sunny 34 1 -15 -26 11 11 WSW 13 20 30.12 1020 10 16 0.00 0.00
6:15 pm 18:15 Clear 36 2 -15 -26 10 10 SW 16 26 30.06 1018 10 16 0.00 0.00
6:35 pm 18:35 Clear 34 1 -15 -26 11 11 SW 17 28 30.09 1019 10 16 0.00 0.00
6:55 pm 18:55 Clear 36 2 -15 -26 10 10 SW 16 26 30.06 1018 10 16 0.00 0.00
7:15 pm 19:15 Clear 36 2 -15 -26 10 10 SW 15 24 30.03 1017 10 16 0.00 0.00
7:35 pm 19:35 Clear 36 2 -15 -26 10 10 SW 13 20 30.03 1017 10 16 0.00 0.00
7:55 pm 19:55 Clear 34 1 -15 -26 11 11 SW 17 28 30.03 1017 10 16 0.00 0.00
8:15 pm 20:15 Clear 34 1 -15 -26 11 11 SW 15 24 30.03 1017 10 16 0.00 0.00
8:35 pm 20:35 Clear 34 1 -15 -26 11 11 SW 15 24 30.03 1017 10 16 0.00 0.00
8:55 pm 20:55 Clear 34 1 -15 -26 11 11 SW 16 26 30.03 1017 10 16 0.00 0.00
9:15 pm 21:15 Clear 34 1 -15 -26 11 11 WSW 12 19 30.03 1017 10 16 0.00 0.00
9:35 pm 21:35 Clear 34 1 -15 -26 11 11 W 13 20 30.03 1017 10 16 0.00 0.00
9:55 pm 21:55 Clear 34 1 -15 -26 11 11 W 14 22 30.03 1017 10 16 0.00 0.00
10:15 pm 22:15 Clear 34 1 -15 -26 11 11 W 10 17 30.03 1017 10 16 0.00 0.00
10:35 pm 22:35 Clear 36 2 -15 -26 10 10 W 15 24 30.03 1017 10 16 0.00 0.00
10:55 pm 22:55 Clear 36 2 -13 -25 11 11 W 13 20 30.03 1017 10 16 0.00 0.00
11:15 pm 23:15 Clear 36 2 -13 -25 11 11 WNW 18 30 30.06 1018 10 16 0.00 0.00
11:35 pm 23:35 Clear 36 2 -13 -25 11 11 WNW 16 26 30.06 1018 10 16 0.00 0.00
11:55 pm 23:55 Clear 36 2 N/A N/A NW 14 22 30.06 1018 10 16 0.00 0.00

Powered by AerisWeather